User: anonymous   Login
Location: Melbourne
(37.8170°S, 144.9670°E)
Time: 12:21:04
(UTC+11:00)
Language:

ADEOS Rocket - Orbit

View from above orbital plane
View from above orbital plane
View from above satellite
View from above satellite

Ground track
Ground track

The orbit data is extracted from the following two-line orbital elements,

1 24279U 96046C   16039.11541074  .00000008  00000-0  51835-4 0  9995
2 24279  98.6938  39.9188 0301023 111.5973 293.7849 13.47042019957591
Epoch (UTC): 08 February 2016 02:46:11
Eccentricity: 0.0301023
inclination: 98.6938°
perigee height: 858 km
apogee height: 1308 km
right ascension of ascending node: 39.9188°
argument of perigee: 111.5973°
revolutions per day: 13.47042019
mean anomaly at epoch: 293.7849°
orbit number at epoch: 95759

The dashed part of the orbit path shows where the satellite is in the earth's shadow,  

DLR